Regional Weather Roundup
Issued by NWS

Home | Current Version | Previous Version | Graphics & Text | Print | Product List | Glossary On
Versions: 1 2 3 4 5 6 7 8 9 10 11 12 13 14 15 16 17 18 19 20 21 22 23 24 25 26 27 28 29 30 31 32 33 34 35 36 37 38 39 40 41 42 43 44 45 46 47 48 49 50
000
ASUS43 KIND 210000
RWRIN

WEATHER ROUNDUP FOR INDIANA
NATIONAL WEATHER SERVICE INDIANAPOLIS IN
800 PM EDT WED SEP 20 2017

NOTE: "FAIR" INDICATES FEW OR NO CLOUDS BELOW 12,000 FEET WITH NO
SIGNIFICANT WEATHER AND/OR OBSTRUCTIONS TO VISIBILITY.

* - STATION DOES NOT REPORT WEATHER SUCH AS PRECIPITATION OR FOG.

+ - STATION NOT QUALITY CONTROLLED BY THE NATIONAL WEATHER SERVICE.
    USE DATA WITH CAUTION...ESPECIALLY DEWPOINT AND RELATIVE
    HUMIDITY OBSERVATIONS.

INZ001>003-010>013-019-020-210100-
NORTHWEST INDIANA

CITY           SKY/WX    TMP DP  RH WIND       PRES   REMARKS
GARY /AIRPORT/ PTCLDY    88  64  45 S8        29.88S
MICHIGAN CITY+ CLEAR     79  68  69 CALM      29.90F
MONTICELLO +   CLEAR     82  68  63 S5        29.92S
6HR MIN TEMP:  82; 6HR MAX TEMP:  89;

RENSSELAER +   CLEAR     81  61  50 S7        29.91S

$$

LMZ046-743>745-210100-
SOUTHERN LAKE MICHIGAN

STATION/POSITION TIME  TEMP    WIND        PRES    WAVE
                       AIR SEA DIR/SP/G            HT
                 (UTC) (F)     (DEG/KT/KT) (MB)    (FT)
BURNS HARBOR     2340   85     180/  8/ 13 1012.2S
MICHIGAN CITY    2330   86     170/  7/  8   N/A
5NW MICH CITY    2350   77 69  170/  6/  8   N/A     1

$$

INZ004-005-014>016-021>024-210100-
NORTH CENTRAL INDIANA

CITY           SKY/WX    TMP DP  RH WIND       PRES   REMARKS
ELKHART        CLEAR     81  68  65 CALM      29.94R
GOSHEN         CLEAR     80  67  64 SE6       29.94S
6HR MIN TEMP:  80; 6HR MAX TEMP:  87;

SOUTH BEND     CLEAR     81  68  64 S7        29.93R
6HR MIN TEMP:  81; 6HR MAX TEMP:  87;


$$

INZ006>009-017-018-025>027-210100-
NORTHEAST INDIANA

CITY           SKY/WX    TMP DP  RH WIND       PRES   REMARKS
AUBURN +       CLEAR     73  68  83 CALM      29.97S
FORT WAYNE     CLEAR     76  68  76 S6        29.97S
6HR MIN TEMP:  76; 6HR MAX TEMP:  86;

KENDALLVILLE + CLEAR     74  69  83 S5        29.97S

$$

INZ028-029-035-036-043>045-051>053-210100-
WEST CENTRAL INDIANA

CITY           SKY/WX    TMP DP  RH WIND       PRES   REMARKS
GREENCASTLE +  CLEAR     79  68  69 CALM      29.97S
LAFAYETTE      CLEAR     82  69  64 S6        29.92S
6HR MIN TEMP:  82; 6HR MAX TEMP:  89;

TERRE HAUTE    CLEAR     82  68  62 S7        29.94S
6HR MIN TEMP:  82; 6HR MAX TEMP:  92;


$$

INZ030>032-037>040-046>048-054>057-064-065-210100-
CENTRAL INDIANA

CITY           SKY/WX    TMP DP  RH WIND       PRES   REMARKS
INDIANAPOLIS   PTCLDY    83  69  62 S8        29.97R
6HR MIN TEMP:  83; 6HR MAX TEMP:  89;

-EAGLE CREEK   CLEAR     84  67  56 S3        29.96S
6HR MIN TEMP:  84; 6HR MAX TEMP:  90;

KOKOMO +       CLEAR     76  69  79 S6        29.97S
6HR MIN TEMP:  76; 6HR MAX TEMP:  86;

MT COMFORT *+    N/A    N/A N/A N/A MISG        N/A
SHELBYVILLE    CLEAR     78  69  73 S5        29.97S
6HR MIN TEMP:  78; 6HR MAX TEMP:  88;


$$

INZ033-034-041-042-049-050-058-059-210100-
EAST CENTRAL INDIANA

CITY           SKY/WX    TMP DP  RH WIND       PRES   REMARKS
MUNCIE         CLEAR     82  67  60 S5        29.98S
6HR MIN TEMP:  82; 6HR MAX TEMP:  89;

RICHMOND +     CLEAR     72  68  88 S5        30.02S

$$

INZ060-061-067>069-081>083-085>088-210100-
SOUTHWEST INDIANA

CITY           SKY/WX    TMP DP  RH WIND       PRES   REMARKS
EVANSVILLE     CLEAR     83  70  64 CALM      29.95S
6HR MIN TEMP:  83; 6HR MAX TEMP:  90;

HUNTINGBURG +  CLEAR     81  72  74 SE5       29.97S

$$

INZ062-063-066-070>080-084-089>092-210100-
SOUTH CENTRAL AND SOUTHEAST INDIANA

CITY           SKY/WX    TMP DP  RH WIND       PRES   REMARKS
BLOOMINGTON    CLEAR     82  68  62 S3        29.98R
6HR MIN TEMP:  82; 6HR MAX TEMP:  91;

MADISON *+     PTCLDY    75  70  83 CALM      30.02S
SEYMOUR +      CLEAR     79  70  73 CALM      29.98S

$$




USA.gov is the U.S. government's official web portal to all federal, state and local government web resources and services.